CAPE
715 543 317 498 647 657 616 667 948 1029 1145 1088 1031 680 364 1026 1174 1197 1250 1123 1161 793
664 637 533 542 552 606 698 684 677 952 1170 1083 1069 1011 917 1164 1191 1451 1316 1018 1070 1180
623 740 594 561 579 531 521 828 607 419 754 993 1154 1347 782 1092 1262 1057 1015 1168 1247 1310
542 585 812 714 597 827 938 813 681 936 910 953 953 1132 1356 1052 1051 995 1076 1095 1093 1107
602 670 760 826 868 1021 1284 945 786 864 708 662 735 897 1158 1317 1195 1075 1021 890 998 1200
765 845 810 951 1036 1002 1228 1253 1110 801 689 533 632 720 909 1093 1102 1123 1021 1026 1173 1166
295 352 508 716 879 1062 1153 1203 1165 929 664 767 784 492 419 692 1119 1167 1154 1119 1071 1136
133 200 302 418 492 663 1074 1132 1214 1111 987 990 962 971 1039 1151 1137 1305 1353 1278 1242 1120
61 39 75 98 259 407 473 550 876 1082 1215 1208 1318 1532 1562 1425 1369 1376 1382 1297 1419 1401
42 43 49 55 74 72 135 205 396 573 766 954 1128 1242 1380 1493 1473 1389 1241 1191 1240 1252
47 24 21 36 28 46 73 78 94 250 339 570 596 856 1033 1116 1016 1199 1090 1022 979 942
36 12 40 4 13 29 17 42 94 98 82 149 278 561 679 791 848 877 950 902 977 1004
12 33 7 32 33 31 25 26 45 76 116 168 121 220 290 336 357 403 530 619 668 738
78 45 42 46 40 50 22 70 58 89 112 97 94 87 128 143 139 135 151 248 355 439
CIN
-28 -21 -39 -50 -57 -40 -36 -49 -21 -31 -37 -21 -15 -31 -26 -14 -35 -38 -53 -64 -66 -72
-41 -22 -34 -36 -40 -48 -52 -39 -33 -32 -44 -43 -32 -27 -45 -35 -27 -33 -40 -59 -56 -46
-47 -47 -37 -28 -65 -39 -75 -49 -29 -154 -27 -43 -36 -23 -38 -35 -18 -22 -43 -32 -52 -52
-53 -64 -52 -44 -60 -57 -40 -35 -35 -66 -49 -55 -47 -23 -13 -15 -23 -26 -31 -22 -22 -33
-61 -70 -61 -48 -52 -62 -41 -39 -18 -47 -58 -50 -43 -49 -38 -15 -14 -24 -33 -29 -41 -20
-39 -32 -51 -61 -58 -60 -45 -28 -16 -15 -12 -16 -37 -32 -36 -52 -38 -28 -35 -39 -28 -18
-59 -65 -54 -50 -64 -42 -36 -29 -12 -7 -13 -9 -8 -9 -18 -82 -38 -22 -13 -16 -38 -36
-25 -59 -56 -52 -56 -58 -59 -36 -34 -15 -9 -7 -13 -17 -23 -15 -5 -20 -14 -14 -10 -9
-81 -77 -31 -81 -55 -30 -32 -46 -40 -44 -25 -31 -31 -44 -13 -8 -7 -6 -2 -27 -17 -15
-42 -47 -48 -25 -14 -35 -63 -72 -30 -54 -49 -51 -38 -33 -39 -19 -15 -19 -22 -21 -12 -5
-21 -40 -78 -42 -20 -6 -12 -35 -22 -46 -57 -65 -59 -34 -37 -17 -31 -23 -29 -20 -24 -28
-25 -19 -25 -42 -76 -23 -1 -2 -5 -75 -52 -66 -61 -36 -40 -34 -33 -30 -29 -33 -37 -16
-20 -7 -33 -30 -40 -49 -57 -54 -56 -79 -90 -57 -63 -41 -27 -47 -39 -40 -32 -23 -45 -19
-2 -6 -4 -6 -25 -41 -21 -26 -23 -73 -69 -50 -48 -37 -17 -36 -56 -55 -70 -57 -34 -40
Wind_Speed
7 6 5 6 6 8 8 9 9 8 6 6 5 6 5 7 8 8 8 6 4 3
12 7 7 8 9 10 11 10 9 9 9 8 9 7 8 8 8 10 12 10 8 6
15 11 9 10 8 9 12 12 10 8 7 7 10 10 10 12 11 10 12 12 11 10
20 16 14 12 11 13 14 13 10 10 10 9 8 8 8 8 9 9 11 11 11 11
24 20 17 15 13 14 14 14 14 13 13 12 10 9 8 8 9 7 9 10 10 10
31 25 20 16 15 15 15 14 13 15 14 14 12 11 10 8 7 7 8 8 8 7
37 37 34 28 23 19 16 16 16 15 16 16 14 14 12 10 11 9 8 8 8 7
40 40 41 37 36 33 28 24 21 20 20 19 18 16 14 14 12 11 9 9 9 7
nan nan nan nan 41 41 40 38 33 28 25 20 21 18 16 17 17 15 13 12 11 10
nan nan nan nan nan nan 43 47 43 42 38 28 26 23 21 20 22 21 18 17 16 15
nan nan nan nan nan nan nan nan nan 41 37 33 31 35 29 28 26 25 22 22 21 18
nan nan nan nan nan nan nan nan nan nan nan 39 38 41 35 34 31 31 29 26 25 25
nan nan nan nan nan nan nan nan nan nan 45 52 41 48 41 40 36 37 35 36 34 42
nan nan nan nan nan nan nan nan nan nan 29 nan nan nan 35 40 37 35 35 35 34 34
Wind_Direction
227 192 180 185 200 183 178 152 169 150 147 141 134 135 150 177 175 162 170 155 159 161
228 213 195 187 201 189 199 189 168 167 164 166 156 170 166 173 181 182 171 170 179 188
225 214 204 211 198 190 190 192 191 194 179 185 178 184 186 174 180 183 184 179 177 193
221 210 206 212 198 199 199 205 198 193 214 211 215 203 210 186 183 185 184 188 182 183
231 225 207 209 212 207 211 215 200 211 213 211 214 215 225 202 198 194 186 189 204 186
224 223 218 216 222 221 220 225 235 221 218 214 221 225 223 217 215 215 203 199 207 198
225 223 221 214 216 224 226 229 232 235 225 224 223 226 228 231 226 226 222 212 210 214
222 225 224 224 222 223 225 222 229 231 225 219 229 230 239 248 245 241 235 234 229 211
nan nan nan nan 225 227 227 226 226 222 223 217 222 229 225 232 240 245 245 238 241 242
nan nan nan nan nan nan 229 230 223 225 225 221 221 215 219 229 233 237 241 245 242 235
nan nan nan nan nan nan nan nan nan 224 220 220 226 221 223 227 231 234 237 243 247 248
nan nan nan nan nan nan nan nan nan nan nan 224 226 217 219 231 234 236 234 241 248 251
nan nan nan nan nan nan nan nan nan nan 234 235 234 228 218 234 235 235 236 235 238 249
nan nan nan nan nan nan nan nan nan nan 233 nan nan nan 224 233 243 244 244 245 246 248